Погода в Новогрудке

Беларусь     53°35′55″N   25°49′30″E
В апреле 2022 года жителям России запретили посещать сайт meteo.paraplan.net по решению Генеральной прокуратуры. Аудитория сайта уменьшилась в 10 раз. Владельцы сайта не видят смысла в поддержке погодного сервера в таких условиях. Сайт будет закрыт в октябре.
темп.,
°C
ветер,
м/с
пор.,
м/с
влажн.,
%
обл.,
%
осадки,
мм/ч
давл.,
гПа
погр.,
м
25 сентября, вс
вс2500:00+9зсз2462100 0.0 1015105
03:00+8з3666100 0.0 1015147
06:00+8з3668100 0.0 1015140
09:00+9зсз3671100 0.0 1015241
12:00+10зсз3570100 0.0 1015325
15:00+13зсз345550 0.0 10131039
18:00+12з236675 0.0 101273
21:00+9ю117298 0.0 101210
26 сентября, пн
пн2600:00+8ююв117630 0.0 101110
03:00+7ююз338477 0.1 101151
06:00+7ююв229252 0.1 101017
09:00+10юв358547 0.1 1009167
12:00+13ююв347327 0.0 1009553
15:00+16ю346553 0.1 1008970
18:00+14ю127548 0.9 100716
21:00+10ююв2286100 0.9 100815
27 сентября, вт
вт2700:00+9ююв229279 0.0 100827
03:00+9юв3597100 0.0 100784
06:00+8юв379737 0.0 1006129
09:00+9юв599433 0.0 1005280
12:00+13вюв5778100 0.0 1004715
15:00+14в5775100 0.0 10031110
18:00+12в51083100 0.1 1001678
21:00+11всв61397100 3.4 999557
28 сентября, ср
ср2800:00+11всв61298100 5.9 997649
03:00+11вюв4898100 10.2 996519
06:00+11ююз3598100 0.4 994371
09:00+11зюз61098100 0.4 995571
12:00+13зюз6108165 0.1 996914
15:00+14зюз7107298 0.4 9981185
18:00+12зюз61078100 0.3 1000688
21:00+8ююз49915 0.3 1002189
29 сентября, чт
чт2900:00+9ююз4107991 0.0 1004241
03:00+8ю378082 0.0 1005167
06:00+6ю4109160 0.0 1006191
09:00+9ю41083100 0.0 1007309
12:00+13ю61165100 0.0 1007842
15:00+12ю61171100 0.0 1008773
18:00+11ю41085100 0.3 1009458
21:00+11ююв3988100 0.3 1009334